Weather History for Hettinger, ND

Change the Weather History Date:

Thursday, May 16, 2013

  Actual Average Record
Temperature  
Mean Temperature 57 °F -  
Max Temperature 63 °F 66 °F 83 °F (2012)
Min Temperature 50 °F 39 °F 30 °F (2007)
Degree Days  
Heating Degree Days 9    
Cooling Degree Days 0 0  
Month to date cooling degree days 7 0  
Year to date cooling degree days 7 0  
Growing Degree Days 6 (Base 50)    
Moisture  
Dew Point 46 °F    
Average Humidity 72    
Maximum Humidity 93    
Minimum Humidity 41    
Precipitation  
Precipitation 0.05 in 0.08 in 0.09 in (2001)
Month to date precipitation 0.05 1.20  
Year to date precipitation 1.28 4.16  
Sea Level Pressure  
Sea Level Pressure 29.83 in    
Wind  
Wind Speed 15 mph (ENE)    
Max Wind Speed 25 mph    
Max Gust Speed 31 mph    
Visibility 10 miles    
Events Rain    
T = Trace of Precipitation, MM = Missing Value Source: NWS Daily Summary

Daily Weather History Graph

Daily Weather History Graph

Search for Another Location

Airport:

Trip Planner

Search our weather history database for the weather conditions in past years. The results will help you decide how hot, cold, wet, or windy it might be!

Date:

Astronomy

May. 16, 2013 Rise Set
Actual Time 5:16 AM MDT 8:17 PM MDT
Civil Twilight 4:41 AM MDT 8:53 PM MDT
Nautical Twilight 3:56 AM MDT 9:38 PM MDT
Astronomical Twilight 3:02 AM MDT 10:33 PM MDT
Moon 10:58 AM MDT (5/16) 12:34 AM MDT (5/16)
Length of Visible Light 16h 11m
Length of Day
15h 00m
Waxing Crescent, 36% of the Moon is Illuminated
May 16
Waxing Crescent
May 17
First Quarter
May 24
Full
May 31
Last Quarter
Jun 8
New

Hourly Weather History & Observations

Time (MDT) Temp. Dew Point Humidity Pressure Visibility Wind Dir Wind Speed Gust Speed Precip Events Conditions
12:53 AM 55.0 °F 32.0 °F 42% 29.86 in 10.0 mi East 11.5 mph - N/A   Clear
1:53 AM 53.1 °F 33.1 °F 47% 29.85 in 10.0 mi ENE 11.5 mph - N/A   Scattered Clouds
2:53 AM 54.0 °F 33.1 °F 45% 29.83 in 10.0 mi East 10.4 mph - N/A   Partly Cloudy
3:53 AM 55.0 °F 35.1 °F 47% 29.81 in 10.0 mi ENE 12.7 mph - 0.00 in   Overcast
4:53 AM 55.9 °F 36.0 °F 47% 29.79 in 10.0 mi ENE 12.7 mph - N/A   Overcast
5:53 AM 52.0 °F 42.1 °F 69% 29.81 in 10.0 mi ENE 16.1 mph - 0.01 in Rain Light Rain
6:53 AM 52.0 °F 43.0 °F 71% 29.83 in 10.0 mi ENE 13.8 mph - 0.01 in   Overcast
7:53 AM 53.1 °F 43.0 °F 69% 29.84 in 10.0 mi ENE 15.0 mph - N/A   Overcast
8:53 AM 54.0 °F 45.0 °F 72% 29.85 in 10.0 mi ENE 15.0 mph - N/A   Overcast
9:53 AM 57.9 °F 44.1 °F 60% 29.84 in 10.0 mi ENE 20.7 mph 26.5 mph N/A   Overcast
10:53 AM 55.9 °F 46.9 °F 72% 29.84 in 10.0 mi ENE 17.3 mph - 0.00 in Rain Light Rain
11:53 AM 54.0 °F 46.9 °F 77% 29.86 in 8.0 mi ENE 19.6 mph 28.8 mph 0.01 in Rain Light Rain
12:53 PM 55.9 °F 52.0 °F 87% 29.83 in 10.0 mi ENE 19.6 mph 29.9 mph 0.02 in   Mostly Cloudy
1:09 PM 57.2 °F 51.8 °F 82% 29.84 in 10.0 mi ENE 21.9 mph 26.5 mph N/A   Mostly Cloudy
1:53 PM 57.0 °F 51.1 °F 81% 29.83 in 10.0 mi East 19.6 mph 26.5 mph N/A   Scattered Clouds
2:53 PM 59.0 °F 50.0 °F 72% 29.82 in 10.0 mi East 21.9 mph 28.8 mph N/A   Mostly Cloudy
3:53 PM 61.0 °F 50.0 °F 67% 29.81 in 10.0 mi East 19.6 mph 26.5 mph N/A   Overcast
4:53 PM 57.9 °F 50.0 °F 75% 29.82 in 10.0 mi East 20.7 mph - N/A   Overcast
5:10 PM 57.2 °F 50.0 °F 77% 29.83 in 10.0 mi East 20.7 mph 24.2 mph N/A   Overcast
5:53 PM 57.9 °F 50.0 °F 75% 29.81 in 10.0 mi East 18.4 mph - N/A   Overcast
6:03 PM 59.0 °F 50.0 °F 72% 29.81 in 10.0 mi East 17.3 mph - N/A   Overcast
6:53 PM 57.9 °F 50.0 °F 75% 29.82 in 10.0 mi East 13.8 mph 23.0 mph N/A   Overcast
7:50 PM 55.4 °F 50.0 °F 82% 29.84 in 10.0 mi East 15.0 mph - N/A   Mostly Cloudy
7:53 PM 55.9 °F 50.0 °F 80% 29.83 in 10.0 mi East 13.8 mph - N/A   Mostly Cloudy
8:53 PM 55.0 °F 48.9 °F 80% 29.84 in 10.0 mi East 16.1 mph - N/A   Overcast
9:53 PM 54.0 °F 48.9 °F 83% 29.85 in 10.0 mi East 15.0 mph - N/A   Overcast
10:53 PM 52.0 °F 48.9 °F 89% 29.86 in 10.0 mi East 11.5 mph - N/A   Mostly Cloudy
11:36 PM 51.8 °F 48.2 °F 88% 29.85 in 10.0 mi East 8.1 mph - N/A   Scattered Clouds
11:53 PM 50.0 °F 48.0 °F 93% 29.86 in 9.0 mi East 5.8 mph - N/A   Clear